Regional Weather Roundup
Issued by NWS New Orleans/Baton Rouge, LA

Home | Current Version | Previous Version | Graphics & Text | Print | Product List | Glossary On
Versions: 1 2 3 4 5 6 7 8 9 10 11 12 13 14 15 16 17 18 19 20 21 22 23 24 25 26 27 28 29 30 31 32 33 34 35 36 37 38 39 40 41 42 43 44 45 46 47 48 49 50
886
ASUS44 KLIX 211905
RWRLIX
NEW ORLEANS REGIONAL WEATHER ROUNDUP
NATIONAL WEATHER SERVICE NEW ORLEANS LA
200 PM CDT SUN SEP 21 2014

NOTE: "FAIR" INDICATES FEW OR NO CLOUDS BELOW 12,000 FEET WITH NO
      SIGNIFICANT WEATHER AND/OR OBSTRUCTIONS TO VISIBILITY.
      SKY/WX - SKY CONDITION AND SIGNIFICANT WEATHER.
      TMP - AIR TEMPERATURE.     DP    - DEWPOINT TEMPERATURE.
      RH  - RELATIVE HUMIDITY.   PRES  - PRESSURE.
      HI  - HEAT INDEX.          WCI   - WIND CHILL INDEX.

*  THESE STATIONS ARE NOT NWS OR FAA STATIONS AND ARE NOT UNDER
   NWS QUALITY CONTROL.

LAZ038-040-048-061>063-065>067-069-212000-
SOUTHEAST LOUISIANA

CITY           SKY/WX    TMP DP  RH WIND       PRES   REMARKS
N.O. AUDUBON     N/A     90  70  52 MISG        N/A  HX  95
N.O. INTL ARPT MOSUNNY   87  68  52 NE13      30.01F
N.O. LAKEFRONT SUNNY     87  69  54 N10       30.01F
N.O. DOWNTOWN* CLOUDY    84  66  54 NE6       30.01F
SLIDELL        MOSUNNY   88  67  49 NE10      30.00F
BATON ROUGE    SUNNY     89  66  46 NE8G17    30.01F
BOOTHVILLE     MOSUNNY   85  74  69 E14       29.99F
BELLE CHASSE   MOSUNNY   87  66  49 NE13      29.99F
BOGALUSA*        N/A     87  65  47 NE7       30.03F
GALLIANO*      NOT AVBL
NEW ROADS*       N/A     87  68  52 N7        30.02F
GONZALES*        N/A     87  66  50 CALM      30.00F
HAMMOND*       MOSUNNY   90  63  40 E5        30.02F
HOUMA*         NOT AVBL
PORT FOURCHON* MOCLDY    84  73  70 NE13      30.02F

$$

MSZ070-080>082-212000-
SOUTHERN MISSISSIPPI

CITY           SKY/WX    TMP DP  RH WIND       PRES   REMARKS
MCCOMB         SUNNY     88  62  41 N9        30.03F
GULFPORT       MOSUNNY   85  69  58 SE7       29.99F
BILOXI         MOSUNNY   89  69  52 S10       30.00F
PASCAGOULA     MOSUNNY   86  66  51 VRB3      30.00F
STENNIS ARPT*  PTSUNNY   86  63  45 VRB5      30.01F

$$

COASTAL OBSERVATIONS
LAKE AND NEARSHORE STATIONS

STATION/POSITION TIME  TEMP    WIND        PRES    WAVE
                       AIR SEA DIR/SP/G            HT/PER
                 (UTC) (F)     (DEG/KT/KT) (MB)    (FT/S)
PASCAGOULA       1900   86      70/  9/ 12 1015.6
WAVELAND YACHT   1900   82     160/  9/ 10 1015.6
GRAND ISLE       1900   84 82   60/ 11/ 13 1016.0
SOUTHWEST PASS   1900   91 90   70/ 15/ 17 1015.4
NEW CANAL        1900   82 81   20/  9/ 11 1016.7
SHELL BEACH      1900   82 78   40/ 11/ 14 1016.0

OFFSHORE STATIONS

STATION/POSITION TIME  TEMP    WIND        PRES    WAVE
                       AIR SEA DIR/SP/G            HT/PER
                 (UTC) (F)     (DEG/KT/KT) (MB)    (FT/S)
64 S DAUPHIN ISL 1758   82 84  100/ 17/ 19 1015.6    5/ 5

$$




USA.gov is the U.S. government's official web portal to all federal, state and local government web resources and services.